Regional Weather Roundup
Issued by NWS

Home | Current Version | Previous Version | Graphics & Text | Print | Product List | Glossary On
Versions: 1 2 3 4 5 6 7 8 9 10 11 12 13 14 15 16 17 18 19 20 21 22 23 24 25 26 27 28 29 30 31 32 33 34 35 36 37 38 39 40 41 42 43 44 45 46 47 48 49 50
000
ASUS43 KFSD 260602
RWRSD

WEATHER ROUNDUP FOR SOUTH DAKOTA
NATIONAL WEATHER SERVICE SIOUX FALLS SD
100 AM CDT SAT JUL 26 2014

NOTE: "FAIR" INDICATES FEW OR NO CLOUDS BELOW 12,000 FEET WITH NO
SIGNIFICANT WEATHER AND/OR OBSTRUCTIONS TO VISIBILITY.


SDZ001>005-009-010-012>017-260700-
NORTHWEST AND NORTH CENTRAL SOUTH DAKOTA

CITY           SKY/WX    TMP DP  RH WIND       PRES   REMARKS
BUFFALO          N/A     69  50  50 W3        29.84F
FAITH            N/A     65  51  60 SE13      29.84F
MOBRIDGE       CLEAR     63  57  81 E8        29.81F
$$

SDZ012>016-024>037-041>051-057-063-072>074-260700-
SOUTHWEST AND SOUTH CENTRAL SOUTH DAKOTA

CITY           SKY/WX    TMP DP  RH WIND       PRES   REMARKS
RAPID CTY ARPT CLEAR     64  53  67 N12       29.88R
PIERRE         TSTM      72  69  90 NE8       29.83R FOG
CUSTER         CLEAR     58  47  66 NW5       30.02S
ELLSWORTH AFB  CLEAR     72  52  48 N9        29.89R
PHILIP         CLEAR     65  51  60 E7        29.82F
PINE RIDGE     CLEAR     73  56  54 W9        29.85R
WINNER         FAIR      72  66  81 E10       29.85F
$$

SDZ004>011-016>023-039-040-260700-
NORTHEAST SOUTH DAKOTA

CITY           SKY/WX    TMP DP  RH WIND       PRES   REMARKS
ABERDEEN       CLEAR     56  55  97 CALM      29.85S
WATERTOWN      CLEAR     66  65  96 CALM      29.89R FOG
SISSETON         N/A     61  60  97 CALM      29.83F
$$

SDZ017-020-022-023-036>040-048>070-260700-
SOUTHEAST SOUTH DAKOTA

CITY           SKY/WX    TMP DP  RH WIND       PRES   REMARKS
SIOUX FALLS    PTCLDY    71  69  93 NW5       29.86R
HURON          PTCLDY    67  65  93 CALM      29.86S
CHAMBERLAIN    MOCLDY    70  66  86 SE7       29.86F
MITCHELL       PTCLDY    69  67  93 N7        29.87R
YANKTON        PTCLDY    72  70  94 N5        29.84R
$$

ABBREVIATIONS USED IN REMARKS
   TC - TEMPERATURE IN CELSIUS
  WCI - WIND CHILL INDEX
   HX - HEAT INDEX
  VSB - VISIBILITY



USA.gov is the U.S. government's official web portal to all federal, state and local government web resources and services.